This is the latest recevied weather packets stored in our database for station/object N0NPO. If no packets are shown the sender has not sent any weather packets the latest 10 day(s).
| Time | Temp. | Humidity | Pressure | Rain* | Wind** | Luminosity | Snow |
|---|---|---|---|---|---|---|---|
| 1777546101 | 0.56° C | 1% | 1025.1 hPa | 0 mm | - | 0 W/m² | - |
| 1777545796 | 1.11° C | 1% | 1025.1 hPa | 0 mm | - | 0 W/m² | - |
| 1777545494 | 1.11° C | 1% | 1024.9 hPa | 0 mm | - | 0 W/m² | - |
| 1777545190 | 1.67° C | 1% | 1024.9 hPa | 0 mm | - | 0 W/m² | - |
| 1777544889 | 1.67° C | 1% | 1024.9 hPa | 0 mm | - | 0 W/m² | - |
| 1777544584 | 1.67° C | 1% | 1025.1 hPa | 0 mm | - | 0 W/m² | - |
| 1777544281 | 1.67° C | 1% | 1024.9 hPa | 0 mm | - | 0 W/m² | - |
| 1777543978 | 1.67° C | 1% | 1025 hPa | 0 mm | - | 0 W/m² | - |
| 1777543674 | 1.67° C | 1% | 1024.9 hPa | 0 mm | - | 0 W/m² | - |
| 1777543370 | 1.67° C | 1% | 1024.9 hPa | 0 mm | - | 0 W/m² | - |
| 1777543065 | 1.67° C | 1% | 1025.2 hPa | 0 mm | - | 0 W/m² | - |
| 1777542762 | 1.67° C | 1% | 1025 hPa | 0 mm | - | 0 W/m² | - |
| 1777542459 | 1.67° C | 1% | 1024.9 hPa | 0 mm | - | 0 W/m² | - |
| 1777542156 | 2.22° C | 1% | 1024.9 hPa | 0 mm | - | 0 W/m² | - |
| 1777541853 | 2.22° C | 1% | 1025 hPa | 0 mm | - | 0 W/m² | - |
| 1777541550 | 1.67° C | 1% | 1025 hPa | 0 mm | - | 0 W/m² | - |
| 1777541246 | 1.67° C | 1% | 1025.1 hPa | 0 mm | - | 0 W/m² | - |
| 1777540942 | 1.67° C | 1% | 1025.1 hPa | 0 mm | - | 0 W/m² | - |
| 1777540640 | 1.11° C | 1% | 1024.9 hPa | 0 mm | - | 0 W/m² | - |
| 1777540337 | 1.11° C | 1% | 1024.9 hPa | 0 mm | - | 0 W/m² | - |
| 1777540034 | 1.11° C | 1% | 1024.9 hPa | 0 mm | - | 0 W/m² | - |
| 1777539729 | 0.56° C | 1% | 1024.9 hPa | 0 mm | - | 0 W/m² | - |
| 1777539425 | 1.11° C | 1% | 1024.8 hPa | 0 mm | - | 0 W/m² | - |
| 1777539121 | 1.11° C | 1% | 1024.8 hPa | 0 mm | - | 0 W/m² | - |
| 1777538818 | 1.67° C | 1% | 1024.7 hPa | 0 mm | - | 0 W/m² | - |
* Rain latest hour (hover to see other rain measurements)
** Current wind speed in m/s (hover to see current wind gust speed)